ITY1634 LIBR-LIRF

Flight info

Callsign ITY1634
Flight time 0h 52m
Altitude 19000
Route FASAN M742 LUXIL/N0450F380 DCT TOPNO DCT EKTOL DCT AMSOR DCT IPKAM DCT TEA DCT SIPRO/N0382F180 Z803 LAT
Aircraft A20N/M-SDE2E3FGHIRWXY/LB1

Departure

Time 2026-05-06 22:26
Airport Brindisi Airport (LIBR)

Arrival

Time 2026-05-06 23:19
Airport Rome–Fiumicino Leonardo da Vinci International Airport (LIRF)
Time Latitude Longitude Altitude Speed Heading
2026-05-06 22:17 40.65816 17.94114 39 ft 0 kts 323°
2026-05-06 22:18 40.65811 17.94120 39 ft 2 kts 323°
2026-05-06 22:18 40.65799 17.94132 39 ft 2 kts 323°
2026-05-06 22:19 40.65787 17.94144 40 ft 2 kts 323°
2026-05-06 22:19 40.65775 17.94156 40 ft 2 kts 323°
2026-05-06 22:19 40.65763 17.94168 40 ft 2 kts 323°
2026-05-06 22:19 40.65751 17.94179 40 ft 2 kts 323°
2026-05-06 22:20 40.65740 17.94191 40 ft 1 kts 323°
2026-05-06 22:20 40.65736 17.94195 40 ft 0 kts
2026-05-06 22:20 40.65731 17.94194 40 ft 0 kts 48°
2026-05-06 22:20 40.65727 17.94186 40 ft 1 kts 53°
2026-05-06 22:21 40.65727 17.94185 40 ft 0 kts 53°
2026-05-06 22:22 40.65733 17.94195 40 ft 4 kts 52°
2026-05-06 22:23 40.65778 17.94270 38 ft 16 kts 50°
2026-05-06 22:23 40.65858 17.94408 36 ft 20 kts 53°
2026-05-06 22:23 40.65919 17.94561 34 ft 18 kts 101°
2026-05-06 22:23 40.65829 17.94691 34 ft 19 kts 139°
2026-05-06 22:24 40.65718 17.94810 33 ft 21 kts 139°
2026-05-06 22:24 40.65610 17.94932 33 ft 15 kts 143°
2026-05-06 22:24 40.65631 17.94943 32 ft 10 kts 316°
2026-05-06 22:24 40.65689 17.94870 33 ft 12 kts 315°
2026-05-06 22:25 40.65710 17.94842 33 ft 0 kts 315°
2026-05-06 22:25 40.65711 17.94841 33 ft 0 kts 315°
2026-05-06 22:25 40.65743 17.94799 33 ft 33 kts 316°
2026-05-06 22:25 40.66125 17.94329 34 ft 112 kts 318°
2026-05-06 22:26 40.66857 17.93437 76 ft 169 kts 317°
2026-05-06 22:26 40.67790 17.92408 606 ft 179 kts 317°
2026-05-06 22:26 40.68754 17.91316 1229 ft 191 kts 313°
2026-05-06 22:26 40.69821 17.90145 1836 ft 206 kts 316°
2026-05-06 22:27 40.70966 17.88964 2533 ft 213 kts 318°
2026-05-06 22:27 40.72127 17.87749 3210 ft 222 kts 314°
2026-05-06 22:27 40.73252 17.86270 3838 ft 235 kts 308°
2026-05-06 22:27 40.74340 17.84631 4539 ft 246 kts 308°
2026-05-06 22:28 40.75502 17.82894 5180 ft 262 kts 308°
2026-05-06 22:28 40.76564 17.80872 5758 ft 277 kts 296°
2026-05-06 22:28 40.77230 17.78562 6816 ft 272 kts 279°
2026-05-06 22:28 40.77218 17.76078 7747 ft 272 kts 261°
2026-05-06 22:29 40.76934 17.73629 8635 ft 276 kts 259°
2026-05-06 22:29 40.76690 17.71148 9520 ft 279 kts 262°
2026-05-06 22:29 40.76570 17.68564 10343 ft 284 kts 272°
2026-05-06 22:29 40.77101 17.66022 10922 ft 300 kts 292°
2026-05-06 22:30 40.78092 17.63533 11403 ft 316 kts 296°
2026-05-06 22:30 40.79199 17.60946 11761 ft 334 kts 296°
2026-05-06 22:30 40.80356 17.58171 12079 ft 352 kts 295°
2026-05-06 22:30 40.81527 17.55270 12408 ft 367 kts 294°
2026-05-06 22:31 40.82712 17.52274 13036 ft 372 kts 294°
2026-05-06 22:31 40.83887 17.49276 13828 ft 372 kts 293°
2026-05-06 22:31 40.85052 17.46245 14591 ft 371 kts 291°
2026-05-06 22:31 40.85869 17.43004 15256 ft 369 kts 279°
2026-05-06 22:32 40.86135 17.39663 15904 ft 368 kts 268°
2026-05-06 22:32 40.85957 17.36338 16532 ft 369 kts 263°
2026-05-06 22:32 40.85683 17.32943 17165 ft 371 kts 262°
2026-05-06 22:32 40.85405 17.29582 17744 ft 374 kts 262°
2026-05-06 22:33 40.85124 17.26150 18307 ft 377 kts 262°
2026-05-06 22:33 40.84847 17.22722 18848 ft 381 kts 263°
2026-05-06 22:33 40.84560 17.19206 19380 ft 384 kts 262°
2026-05-06 22:33 40.84277 17.15717 19883 ft 388 kts 262°
2026-05-06 22:34 40.83985 17.12128 20396 ft 392 kts 262°
2026-05-06 22:34 40.83694 17.08554 20871 ft 396 kts 262°
2026-05-06 22:34 40.83400 17.04941 21358 ft 400 kts 262°
2026-05-06 22:34 40.83099 17.01270 21833 ft 404 kts 262°
2026-05-06 22:35 40.82798 16.97591 22289 ft 408 kts 262°
2026-05-06 22:35 40.82494 16.93875 22744 ft 411 kts 262°
2026-05-06 22:35 40.82292 16.90097 23197 ft 416 kts 267°
2026-05-06 22:35 40.82388 16.86268 23644 ft 421 kts 273°
2026-05-06 22:36 40.82790 16.82438 24099 ft 426 kts 278°
2026-05-06 22:36 40.83429 16.78581 24577 ft 429 kts 280°
2026-05-06 22:36 40.84107 16.74744 25017 ft 432 kts 281°
2026-05-06 22:36 40.84792 16.70905 25452 ft 434 kts 281°
2026-05-06 22:37 40.85486 16.67003 25893 ft 436 kts 280°
2026-05-06 22:37 40.86167 16.63145 26275 ft 439 kts 280°
2026-05-06 22:37 40.86862 16.59190 26650 ft 441 kts 280°
2026-05-06 22:37 40.87553 16.55238 27010 ft 444 kts 280°
2026-05-06 22:38 40.88308 16.51297 27417 ft 445 kts 282°
2026-05-06 22:38 40.89110 16.47393 27931 ft 443 kts 282°
2026-05-06 22:38 40.89916 16.43487 28413 ft 442 kts 282°
2026-05-06 22:38 40.90716 16.39568 28769 ft 442 kts 282°
2026-05-06 22:39 40.91510 16.35647 29010 ft 445 kts 282°
2026-05-06 22:39 40.92298 16.31707 29288 ft 447 kts 281°
2026-05-06 22:39 40.93087 16.27738 29602 ft 447 kts 281°
2026-05-06 22:39 40.93876 16.23758 29906 ft 448 kts 280°
2026-05-06 22:40 40.95451 16.15765 30014 ft 451 kts 281°
2026-05-06 22:40 40.97027 16.07739 30016 ft 452 kts 281°
2026-05-06 22:41 40.99381 15.95706 30010 ft 453 kts 281°
2026-05-06 22:42 41.00957 15.87605 30010 ft 453 kts 280°
2026-05-06 22:42 41.02513 15.79576 30010 ft 455 kts 280°
2026-05-06 22:43 41.04073 15.71486 30011 ft 454 kts 280°
2026-05-06 22:43 41.05626 15.63406 30007 ft 454 kts 280°
2026-05-06 22:44 41.07173 15.55331 30012 ft 453 kts 280°
2026-05-06 22:44 41.08720 15.47223 30009 ft 453 kts 280°
2026-05-06 22:45 41.09886 15.41075 30011 ft 453 kts 280°
2026-05-06 22:45 41.11438 15.32987 30011 ft 453 kts 279°
2026-05-06 22:46 41.12979 15.24915 30012 ft 453 kts 279°
2026-05-06 22:46 41.14510 15.16801 30013 ft 453 kts 279°
2026-05-06 22:47 41.16022 15.08720 30012 ft 454 kts 279°
2026-05-06 22:47 41.17524 15.00646 30015 ft 453 kts 279°
2026-05-06 22:48 41.19024 14.92549 30012 ft 453 kts 279°
2026-05-06 22:48 41.20521 14.84437 30010 ft 453 kts 279°
2026-05-06 22:49 41.22006 14.76354 30009 ft 452 kts 279°
2026-05-06 22:49 41.23492 14.68225 30004 ft 452 kts 279°
2026-05-06 22:50 41.24962 14.60148 30010 ft 453 kts 279°
2026-05-06 22:50 41.26432 14.52049 30006 ft 453 kts 279°
2026-05-06 22:51 41.27894 14.43943 30005 ft 453 kts 279°
2026-05-06 22:51 41.29361 14.35778 30007 ft 452 kts 279°
2026-05-06 22:52 41.30812 14.27657 30012 ft 452 kts 278°
2026-05-06 22:52 41.32246 14.19595 30013 ft 452 kts 278°
2026-05-06 22:53 41.33689 14.11457 30016 ft 453 kts 278°
2026-05-06 22:53 41.35120 14.03352 30014 ft 452 kts 278°
2026-05-06 22:54 41.36552 13.95207 29764 ft 451 kts 278°
2026-05-06 22:54 41.37259 13.91167 29242 ft 449 kts 278°
2026-05-06 22:54 41.37961 13.87151 28556 ft 445 kts 278°
2026-05-06 22:54 41.38654 13.83173 27797 ft 442 kts 278°
2026-05-06 22:55 41.39337 13.79238 26972 ft 442 kts 279°
2026-05-06 22:55 41.40031 13.75231 26273 ft 438 kts 279°
2026-05-06 22:55 41.40710 13.71314 25790 ft 435 kts 279°
2026-05-06 22:55 41.41375 13.67475 25286 ft 431 kts 279°
2026-05-06 22:56 41.42051 13.63565 24751 ft 427 kts 279°
2026-05-06 22:56 41.42704 13.59772 24205 ft 426 kts 279°
2026-05-06 22:56 41.43361 13.55940 23662 ft 424 kts 279°
2026-05-06 22:56 41.44013 13.52135 23117 ft 421 kts 280°
2026-05-06 22:57 41.44662 13.48339 22572 ft 418 kts 280°
2026-05-06 22:57 41.45295 13.44630 22021 ft 415 kts 280°
2026-05-06 22:57 41.45935 13.40872 21451 ft 412 kts 280°
2026-05-06 22:57 41.46565 13.37163 20886 ft 410 kts 280°
2026-05-06 22:58 41.47183 13.33518 20322 ft 407 kts 279°
2026-05-06 22:58 41.47804 13.29838 19760 ft 404 kts 280°
2026-05-06 22:58 41.48414 13.26210 19186 ft 402 kts 280°
2026-05-06 22:58 41.49022 13.22586 18618 ft 399 kts 280°
2026-05-06 22:59 41.49620 13.19024 18053 ft 395 kts 280°
2026-05-06 22:59 41.50213 13.15487 17510 ft 392 kts 280°
2026-05-06 22:59 41.50810 13.11916 16964 ft 389 kts 280°
2026-05-06 22:59 41.51387 13.08456 16698 ft 377 kts 280°
2026-05-06 23:00 41.51937 13.05153 16531 ft 361 kts 280°
2026-05-06 23:00 41.52464 13.01997 16382 ft 334 kts 280°
2026-05-06 23:00 41.52949 12.99079 16259 ft 309 kts 279°
2026-05-06 23:00 41.53472 12.96338 15995 ft 317 kts 289°
2026-05-06 23:01 41.54731 12.93876 15566 ft 326 kts 312°
2026-05-06 23:01 41.56395 12.91918 15191 ft 312 kts 317°
2026-05-06 23:01 41.58058 12.90084 14795 ft 308 kts 316°
2026-05-06 23:01 41.59683 12.88244 14384 ft 306 kts 316°
2026-05-06 23:02 41.61270 12.86390 13968 ft 305 kts 315°
2026-05-06 23:02 41.62856 12.84492 13603 ft 302 kts 315°
2026-05-06 23:02 41.64397 12.82623 13256 ft 300 kts 314°
2026-05-06 23:02 41.65933 12.80744 12893 ft 299 kts 314°
2026-05-06 23:03 41.67457 12.78869 12535 ft 297 kts 314°
2026-05-06 23:03 41.68953 12.77019 12156 ft 295 kts 314°
2026-05-06 23:03 41.70448 12.75166 11781 ft 294 kts 314°
2026-05-06 23:03 41.71950 12.73303 11432 ft 292 kts 314°
2026-05-06 23:04 41.73415 12.71483 11149 ft 287 kts 314°
2026-05-06 23:04 41.74876 12.69668 10822 ft 284 kts 314°
2026-05-06 23:04 41.76316 12.67876 10571 ft 279 kts 314°
2026-05-06 23:04 41.77731 12.66112 10378 ft 276 kts 314°
2026-05-06 23:05 41.79134 12.64360 10238 ft 277 kts 314°
2026-05-06 23:05 41.80555 12.62588 10134 ft 276 kts 314°
2026-05-06 23:05 41.81961 12.60832 10052 ft 276 kts 314°
2026-05-06 23:05 41.83355 12.59087 9986 ft 277 kts 314°
2026-05-06 23:06 41.84751 12.57341 9846 ft 273 kts 314°
2026-05-06 23:06 41.86146 12.55597 9464 ft 274 kts 314°
2026-05-06 23:06 41.87539 12.53855 9090 ft 274 kts 315°
2026-05-06 23:06 41.88929 12.52114 8723 ft 274 kts 315°
2026-05-06 23:07 41.90323 12.50369 8368 ft 273 kts 315°
2026-05-06 23:07 41.91697 12.48644 8044 ft 271 kts 315°
2026-05-06 23:07 41.93059 12.46935 7716 ft 270 kts 315°
2026-05-06 23:07 41.94422 12.45223 7430 ft 267 kts 315°
2026-05-06 23:08 41.95788 12.43509 7159 ft 263 kts 315°
2026-05-06 23:08 41.97118 12.41841 6895 ft 259 kts 315°
2026-05-06 23:08 41.98416 12.40208 6645 ft 255 kts 315°
2026-05-06 23:08 41.99701 12.38590 6398 ft 251 kts 315°
2026-05-06 23:09 42.00964 12.36996 6154 ft 247 kts 315°
2026-05-06 23:09 42.02212 12.35420 5911 ft 244 kts 315°
2026-05-06 23:09 42.03450 12.33850 5618 ft 242 kts 314°
2026-05-06 23:09 42.04659 12.32310 5390 ft 238 kts 314°
2026-05-06 23:10 42.05864 12.30776 5046 ft 234 kts 314°
2026-05-06 23:10 42.07018 12.29309 4688 ft 228 kts 315°
2026-05-06 23:10 42.08148 12.27880 4499 ft 219 kts 315°
2026-05-06 23:10 42.09270 12.26460 4459 ft 220 kts 315°
2026-05-06 23:11 42.10377 12.25061 4408 ft 219 kts 315°
2026-05-06 23:11 42.11495 12.23664 4368 ft 219 kts 316°
2026-05-06 23:11 42.12490 12.22113 4176 ft 217 kts 289°
2026-05-06 23:11 42.12614 12.20187 3935 ft 206 kts 250°
2026-05-06 23:12 42.11890 12.18596 3666 ft 200 kts 217°
2026-05-06 23:12 42.10661 12.17792 3427 ft 197 kts 191°
2026-05-06 23:12 42.09300 12.17421 3239 ft 197 kts 190°
2026-05-06 23:12 42.07964 12.17188 3056 ft 191 kts 182°
2026-05-06 23:13 42.06664 12.17201 3009 ft 187 kts 173°
2026-05-06 23:13 42.05372 12.17493 3001 ft 188 kts 165°
2026-05-06 23:13 42.04103 12.17964 2969 ft 188 kts 162°
2026-05-06 23:13 42.02828 12.18495 2749 ft 194 kts 161°
2026-05-06 23:14 42.01559 12.19035 2554 ft 189 kts 161°
2026-05-06 23:14 42.00343 12.19551 2495 ft 177 kts 161°
2026-05-06 23:14 41.99196 12.20035 2489 ft 171 kts 161°
2026-05-06 23:14 41.98069 12.20510 2493 ft 170 kts 161°
2026-05-06 23:15 41.96929 12.20988 2462 ft 170 kts 161°
2026-05-06 23:15 41.95799 12.21462 2331 ft 168 kts 161°
2026-05-06 23:15 41.94716 12.21913 2094 ft 156 kts 160°
2026-05-06 23:15 41.93712 12.22332 1858 ft 146 kts 160°
2026-05-06 23:16 41.92763 12.22729 1685 ft 141 kts 160°
2026-05-06 23:16 41.91850 12.23112 1481 ft 137 kts 160°
2026-05-06 23:16 41.90938 12.23494 1300 ft 136 kts 160°
2026-05-06 23:16 41.90042 12.23869 1129 ft 135 kts 160°
2026-05-06 23:17 41.89150 12.24240 957 ft 135 kts 160°
2026-05-06 23:17 41.88251 12.24613 781 ft 135 kts 160°
2026-05-06 23:17 41.87355 12.24989 603 ft 134 kts 160°
2026-05-06 23:17 41.86458 12.25365 422 ft 134 kts 160°
2026-05-06 23:18 41.85576 12.25735 243 ft 133 kts 160°
2026-05-06 23:18 41.84695 12.26104 67 ft 132 kts 160°
2026-05-06 23:18 41.83874 12.26452 13 ft 102 kts 162°
2026-05-06 23:18 41.83360 12.26667 10 ft 53 kts 162°
2026-05-06 23:19 41.83099 12.26776 9 ft 34 kts 162°
2026-05-06 23:19 41.82879 12.26864 9 ft 32 kts 173°
2026-05-06 23:19 41.82672 12.26861 9 ft 27 kts 188°
2026-05-06 23:19 41.82490 12.26810 9 ft 26 kts 192°
2026-05-06 23:20 41.82309 12.26790 9 ft 25 kts 168°
2026-05-06 23:20 41.82137 12.26858 9 ft 25 kts 161°
2026-05-06 23:20 41.81969 12.26930 9 ft 25 kts 161°
2026-05-06 23:20 41.81802 12.27000 10 ft 25 kts 162°
2026-05-06 23:21 41.81619 12.27078 10 ft 29 kts 161°
2026-05-06 23:21 41.81421 12.27161 11 ft 29 kts 162°
2026-05-06 23:21 41.81237 12.27244 11 ft 27 kts 163°
2026-05-06 23:21 41.81060 12.27314 11 ft 25 kts 163°
2026-05-06 23:22 41.80891 12.27350 11 ft 24 kts 185°
2026-05-06 23:22 41.80729 12.27312 12 ft 23 kts 199°
2026-05-06 23:22 41.80634 12.27160 12 ft 22 kts 251°
2026-05-06 23:22 41.80580 12.26971 12 ft 21 kts 251°
2026-05-06 23:23 41.80530 12.26787 13 ft 20 kts 250°
2026-05-06 23:23 41.80483 12.26606 14 ft 20 kts 250°
2026-05-06 23:23 41.80434 12.26432 14 ft 19 kts 248°
2026-05-06 23:23 41.80328 12.26381 14 ft 18 kts 160°
2026-05-06 23:24 41.80208 12.26403 14 ft 17 kts 199°
2026-05-06 23:24 41.80131 12.26356 14 ft 5 kts 206°
2026-05-06 23:24 41.80089 12.26331 15 ft 8 kts 199°
2026-05-06 23:24 41.80020 12.26341 15 ft 12 kts 159°
2026-05-06 23:25 41.79931 12.26385 15 ft 14 kts 159°
2026-05-06 23:25 41.79839 12.26430 14 ft 7 kts 161°
2026-05-06 23:25 41.79827 12.26476 14 ft 6 kts 69°
2026-05-06 23:25 41.79839 12.26519 14 ft 0 kts 73°